H1 CPF 2 NER 2024 8 30 9 243 01 glonass133 H2 1403201 9133 40001 2024 8 30 0 0 0 2024 9 2 23 45 0 900 1 1 0 0 0 1 H9 10 0 60552 0.00000 0 24238399.008 -4243580.690 -6792351.392 10 0 60552 900.00000 0 24864341.531 -4493947.423 -3640501.087 10 0 60552 1800.00000 0 25082622.622 -4731921.041 -418092.730 10 0 60552 2700.00000 0 24895339.489 -4900462.355 2812417.061 10 0 60552 3600.00000 0 24318051.897 -4944738.479 5988417.230 10 0 60552 4500.00000 0 23379089.515 -4814674.767 9048349.610 10 0 60552 5400.00000 0 22118345.245 -4467310.600 11932896.008 10 0 60552 6300.00000 0 20585604.997 -3868859.459 14586122.417 10 0 60552 7200.00000 0 18838483.493 -2996386.127 16956558.605 10 0 60552 8100.00000 0 16940051.936 -1839029.646 18998192.598 10 0 60552 9000.00000 0 14956256.105 -398719.517 20671361.251 10 0 60552 9900.00000 0 12953232.070 1309646.360 21943519.982 10 0 60552 10800.00000 0 10994630.877 3258571.273 22789877.027 10 0 60552 11700.00000 0 9139063.192 5408863.389 23193880.005 10 0 60552 12600.00000 0 7437770.008 7711037.929 23147545.173 10 0 60552 13500.00000 0 5932616.200 10107161.445 22651622.586 10 0 60552 14400.00000 0 4654490.450 12533063.285 21715593.251 10 0 60552 15300.00000 0 3622178.359 14920823.665 20357497.394 10 0 60552 16200.00000 0 2841755.915 17201435.885 18603596.119 10 0 60552 17100.00000 0 2306528.852 19307532.417 16487871.843 10 0 60552 18000.00000 0 1997520.542 21176061.281 14051376.161 10 0 60552 18900.00000 0 1884487.904 22750800.655 11341436.934 10 0 60552 19800.00000 0 1927422.323 23984605.942 8410739.405 10 0 60552 20700.00000 0 2078471.812 24841294.276 5316299.057 10 0 60552 21600.00000 0 2284202.386 25297086.529 2118346.422 10 0 60552 22500.00000 0 2488101.928 25341545.423 -1120853.839 10 0 60552 23400.00000 0 2633219.153 24977969.747 -4338225.563 10 0 60552 24300.00000 0 2664824.335 24223227.834 -7471120.421 10 0 60552 25200.00000 0 2532977.476 23107037.493 -10458548.530 10 0 60552 26100.00000 0 2194893.535 21670723.192 -13242375.074 10 0 60552 27000.00000 0 1617003.209 19965503.670 -15768458.625 10 0 60552 27900.00000 0 776620.933 18050382.931 -17987708.238 10 0 60552 28800.00000 0 -336851.248 15989734.312 -19857038.375 10 0 60552 29700.00000 0 -1721235.295 13850679.908 -21340203.153 10 0 60552 30600.00000 0 -3361433.663 11700375.786 -22408494.112 10 0 60552 31500.00000 0 -5229836.843 9603316.935 -23041288.707 10 0 60552 32400.00000 0 -7287265.009 7618774.375 -23226439.828 10 0 60552 33300.00000 0 -9484404.409 5798470.780 -22960499.867 10 0 60552 34200.00000 0 -11763678.606 4184590.499 -22248776.012 10 0 60552 35100.00000 0 -14061476.700 2808205.468 -21105216.660 10 0 60552 36000.00000 0 -16310646.009 1688180.844 -19552131.852 10 0 60552 36900.00000 0 -18443145.808 830604.126 -17619753.670 10 0 60552 37800.00000 0 -20392752.209 228759.582 -15345645.380 10 0 60552 38700.00000 0 -22097702.212 -136352.833 -12773970.786 10 0 60552 39600.00000 0 -23503167.487 -294977.484 -9954637.854 10 0 60552 40500.00000 0 -24563455.447 -287087.005 -6942332.937 10 0 60552 41400.00000 0 -25243846.599 -160454.984 -3795463.975 10 0 60552 42300.00000 0 -25521992.048 31600.816 -575032.861 10 0 60552 43200.00000 0 -25388813.238 232709.219 2656541.561 10 0 60552 44100.00000 0 -24848866.829 386065.168 5836627.391 10 0 60552 45000.00000 0 -23920159.410 437067.494 8903587.448 10 0 60552 45900.00000 0 -22633419.937 335863.620 11797967.900 10 0 60552 46800.00000 0 -21030860.267 39693.843 14463645.069 10 0 60552 47700.00000 0 -19164474.988 -485063.851 16848908.625 10 0 60552 48600.00000 0 -17093951.050 -1261235.020 18907460.613 10 0 60552 49500.00000 0 -14884273.751 -2299646.648 20599311.425 10 0 60552 50400.00000 0 -12603128.104 -3598433.316 21891555.691 10 0 60552 51300.00000 0 -10318203.083 -5142882.283 22759013.366 10 0 60552 52200.00000 0 -8094510.204 -6905825.789 23184723.662 10 0 60552 53100.00000 0 -5991827.415 -8848566.144 23160282.092 10 0 60552 54000.00000 0 -4062374.146 -10922297.048 22686013.710 10 0 60552 54900.00000 0 -2348813.966 -13069963.787 21770978.471 10 0 60552 55800.00000 0 -882667.868 -15228486.396 20432807.707 10 0 60552 56700.00000 0 316795.683 -17331254.422 18697373.798 10 0 60552 57600.00000 0 1243147.579 -19310790.031 16598298.308 10 0 60552 58500.00000 0 1902837.186 -21101468.576 14176307.039 10 0 60552 59400.00000 0 2314682.198 -22642182.743 11478443.664 10 0 60552 60300.00000 0 2508830.929 -23878838.157 8557156.589 10 0 60552 61200.00000 0 2525241.212 -24766574.912 5469276.629 10 0 60552 62100.00000 0 2411740.875 -25271620.703 2274905.571 10 0 60552 63000.00000 0 2221752.823 -25372696.597 -963762.118 10 0 60552 63900.00000 0 2011782.287 -25061915.352 -4183660.521 10 0 60552 64800.00000 0 1838774.218 -24345133.831 -7322091.435 10 0 60552 65700.00000 0 1757454.335 -23241744.346 -10317956.055 10 0 60552 66600.00000 0 1817768.133 -21783913.837 -13112953.875 10 0 60552 67500.00000 0 2062527.708 -20015303.298 -15652724.394 10 0 60552 68400.00000 0 2525367.225 -17989322.020 -17887908.675 10 0 60552 69300.00000 0 3229094.385 -15766990.771 -19775109.652 10 0 60552 70200.00000 0 4184508.078 -13414504.361 -21277732.583 10 0 60552 71100.00000 0 5389732.439 -11000596.267 -22366689.726 10 0 60552 72000.00000 0 6830095.427 -8593815.916 -23020956.284 10 0 60552 72900.00000 0 8478557.030 -6259832.218 -23227967.776 10 0 60552 73800.00000 0 10296669.090 -4058875.334 -22983852.217 10 0 60552 74700.00000 0 12236026.515 -2043422.332 -22293493.628 10 0 60552 75600.00000 0 14240149.251 -256221.781 -21170426.588 10 0 60552 76500.00000 0 16246716.580 1271262.192 -19636564.615 10 0 60552 77400.00000 0 18190060.764 2519923.428 -17721768.144 10 0 60552 78300.00000 0 20003816.393 3483562.165 -15463260.748 10 0 60552 79200.00000 0 21623615.432 4168887.493 -12904904.962 10 0 60552 80100.00000 0 22989716.040 4594975.652 -10096351.632 10 0 60552 81000.00000 0 24049455.961 4792208.511 -7092079.021 10 0 60552 81900.00000 0 24759428.633 4800738.196 -3950339.983 10 0 60552 82800.00000 0 25087291.521 4668543.391 -732037.276 10 0 60552 83700.00000 0 25013131.423 4449159.814 2500451.526 10 0 60552 84600.00000 0 24530329.832 4199180.846 5684477.140 10 0 60552 85500.00000 0 23645892.126 3975633.872 8758326.683 10 0 60553 0.00000 0 22380226.931 3833343.033 11662413.463 10 0 60553 900.00000 0 20766383.649 3822389.509 14340427.365 10 0 60553 1800.00000 0 18848781.294 3985776.631 16740420.043 10 0 60553 2700.00000 0 16681478.715 4357398.117 18815809.523 10 0 60553 3600.00000 0 14326058.978 4960395.670 20526281.309 10 0 60553 4500.00000 0 11849214.565 5805975.660 21838570.453 10 0 60553 5400.00000 0 9320132.988 6892735.751 22727109.450 10 0 60553 6300.00000 0 6807790.570 8206531.176 23174529.537 10 0 60553 7200.00000 0 4378266.062 9720887.969 23172005.505 10 0 60553 8100.00000 0 2092185.023 11397947.765 22719436.986 10 0 60553 9000.00000 0 2400.632 13189906.571 21825462.014 10 0 60553 9900.00000 0 -1847992.905 15040889.103 20507301.691 10 0 60553 10800.00000 0 -3427231.831 16889181.857 18790437.917 10 0 60553 11700.00000 0 -4715973.753 18669732.631 16708129.246 10 0 60553 12600.00000 0 -5707862.408 20316812.476 14300773.215 10 0 60553 13500.00000 0 -6409542.735 21766728.656 11615126.589 10 0 60553 14400.00000 0 -6840125.819 22960474.471 8703398.051 10 0 60553 15300.00000 0 -7030126.610 23846203.806 5622230.757 10 0 60553 16200.00000 0 -7019919.885 24381425.320 2431594.730 10 0 60553 17100.00000 0 -6857780.588 24534822.686 -806388.768 10 0 60553 18000.00000 0 -6597592.665 24287623.043 -4028666.984 10 0 60553 18900.00000 0 -6296324.802 23634454.980 -7172494.621 10 0 60553 19800.00000 0 -6011381.588 22583659.217 -10176666.526 10 0 60553 20700.00000 0 -5797943.876 21157038.516 -12982718.801 10 0 60553 21600.00000 0 -5706412.478 19389057.401 -15536073.891 10 0 60553 22500.00000 0 -5780064.632 17325525.634 -17787106.555 10 0 60553 23400.00000 0 -6053023.324 15021821.308 -19692109.586 10 0 60553 24300.00000 0 -6548625.855 12540728.654 -21214140.474 10 0 60553 25200.00000 0 -7278260.763 9949981.644 -22323733.009 10 0 60553 26100.00000 0 -8240722.136 7319616.424 -22999460.677 10 0 60553 27000.00000 0 -9422108.277 4719243.088 -23228341.877 10 0 60553 27900.00000 0 -10796268.740 2215350.151 -23006080.191 10 0 60553 28800.00000 0 -12325780.695 -131246.812 -22337136.056 10 0 60553 29700.00000 0 -13963413.512 -2267707.364 -21234629.445 10 0 60553 30600.00000 0 -15654020.221 -4151125.063 -19720076.171 10 0 60553 31500.00000 0 -17336776.754 -5750063.213 -17822963.460 10 0 60553 32400.00000 0 -18947675.600 -7045605.596 -15580173.299 10 0 60553 33300.00000 0 -20422169.946 -8031880.440 -13035264.787 10 0 60553 34200.00000 0 -21697858.135 -8716037.667 -10237629.284 10 0 60553 35100.00000 0 -22717096.648 -9117682.314 -7241534.478 10 0 60553 36000.00000 0 -23429432.761 -9267789.396 -4105075.577 10 0 60553 36900.00000 0 -23793755.337 -9207147.002 -889053.622 10 0 60553 37800.00000 0 -23780074.073 -8984394.050 2344197.685 10 0 60553 38700.00000 0 -23370852.658 -8653735.798 5532014.278 10 0 60553 39600.00000 0 -22561839.971 -8272433.697 8612610.136 10 0 60553 40500.00000 0 -21362364.270 -7898175.504 11526268.752 10 0 60553 41400.00000 0 -19795077.552 -7586436.429 14216494.969 10 0 60553 42300.00000 0 -17895160.046 -7387942.488 16631105.241 10 0 60553 43200.00000 0 -15709017.103 -7346342.858 18723235.643 10 0 60553 44100.00000 0 -13292521.745 -7496189.426 20452248.579 10 0 60553 45000.00000 0 -10708874.923 -7861308.885 21784520.961 10 0 60553 45900.00000 0 -8026171.286 -8453636.513 22694098.897 10 0 60553 46800.00000 0 -5314770.423 -9272561.615 23163206.334 10 0 60553 47700.00000 0 -2644581.705 -10304813.414 23182597.642 10 0 60553 48600.00000 0 -82374.512 -11524893.746 22751746.982 10 0 60553 49500.00000 0 2310775.194 -12896040.115 21878870.076 10 0 60553 50400.00000 0 4481796.370 -14371680.464 20580777.106 10 0 60553 51300.00000 0 6387596.605 -15897320.222 18882558.490 10 0 60553 52200.00000 0 7996616.038 -17412783.791 16817108.484 10 0 60553 53100.00000 0 9289896.587 -18854717.257 14424494.758 10 0 60553 54000.00000 0 10261621.867 -20159247.592 11751185.262 10 0 60553 54900.00000 0 10919105.246 -21264686.425 8849146.746 10 0 60553 55800.00000 0 11282226.807 -22114163.984 5774832.232 10 0 60553 56700.00000 0 11382343.467 -22658081.290 2588077.284 10 0 60553 57600.00000 0 11260719.002 -22856275.964 -649072.869 10 0 60553 58500.00000 0 10966541.405 -22679809.007 -3873581.553 10 0 60553 59400.00000 0 10554612.779 -22112295.891 -7022659.291 10 0 60553 60300.00000 0 10082811.041 -21150724.769 -10034997.447 10 0 60553 61200.00000 0 9609432.486 -19805726.561 -12851971.514 10 0 60553 62100.00000 0 9190529.223 -18101285.160 -15418789.517 10 0 60553 63000.00000 0 8877355.439 -16073899.865 -17685562.381 10 0 60553 63900.00000 0 8714031.500 -13771235.469 -19608274.968 10 0 60553 64800.00000 0 8735525.203 -11250316.984 -21149638.922 10 0 60553 65700.00000 0 8966035.623 -8575344.973 -22279811.121 10 0 60553 66600.00000 0 9417847.606 -5815223.116 -22976964.470 10 0 60553 67500.00000 0 10090704.755 -3040901.244 -23227700.966 10 0 60553 68400.00000 0 10971726.790 -322644.264 -23027300.017 10 0 60553 69300.00000 0 12035874.164 2272659.933 -22379798.323 10 0 60553 70200.00000 0 13246939.928 4684042.639 -21297900.686 10 0 60553 71100.00000 0 14559026.853 6858742.246 -19802724.266 10 0 60553 72000.00000 0 15918447.679 8754144.400 -17923381.761 10 0 60553 72900.00000 0 17265968.814 10339295.525 -15696411.895 10 0 60553 73800.00000 0 18539303.621 11595928.664 -13165068.288 10 0 60553 74700.00000 0 19675751.066 12518960.809 -10378480.422 10 0 60553 75600.00000 0 20614869.473 13116442.807 -7390702.694 10 0 60553 76500.00000 0 21301073.621 13408965.614 -4259669.661 10 0 60553 77400.00000 0 21686046.718 13428549.295 -1046077.446 10 0 60553 78300.00000 0 21730866.218 13217062.406 2187787.415 10 0 60553 79200.00000 0 21407754.304 12824238.921 5379249.364 10 0 60553 80100.00000 0 20701379.628 12305376.718 8466452.423 10 0 60553 81000.00000 0 19609655.320 11718814.643 11389552.980 10 0 60553 81900.00000 0 18143999.262 11123294.425 14091874.063 10 0 60553 82800.00000 0 16329044.916 10575318.396 16520999.049 10 0 60553 83700.00000 0 14201813.662 10126614.057 18629784.138 10 0 60553 84600.00000 0 11810381.912 9821812.108 20377270.374 10 0 60553 85500.00000 0 9212097.175 9696435.649 21729477.933 10 0 60554 0.00000 0 6471416.098 9775285.327 22660067.530 10 0 60554 900.00000 0 3657451.380 10071288.892 23150856.665 10 0 60554 1800.00000 0 841331.808 10584864.173 23192179.465 10 0 60554 2700.00000 0 -1906521.073 11303823.459 22783084.441 10 0 60554 3600.00000 0 -4519083.991 12203824.579 21931364.358 10 0 60554 4500.00000 0 -6935281.027 13249351.194 20653417.331 10 0 60554 5400.00000 0 -9102285.060 14395182.541 18973940.665 10 0 60554 6300.00000 0 -10977475.999 15588292.180 16925462.242 10 0 60554 7200.00000 0 -12529974.182 16770096.822 14547717.419 10 0 60554 8100.00000 0 -13741684.868 17878961.186 11886882.599 10 0 60554 9000.00000 0 -14607810.052 18852853.449 8994679.685 10 0 60554 9900.00000 0 -15136806.194 19632038.909 5927368.558 10 0 60554 10800.00000 0 -15349789.968 20161697.358 2744647.301 10 0 60554 11700.00000 0 -15279417.628 20394352.486 -491517.877 10 0 60554 12600.00000 0 -14968286.153 20292009.282 -3718109.274 10 0 60554 13500.00000 0 -14466924.930 19827907.776 -6872296.004 10 0 60554 14400.00000 0 -13831464.267 18987817.700 -9892668.551 10 0 60554 15300.00000 0 -13121080.932 17770818.424 -12720444.181 10 0 60554 16200.00000 0 -12395330.229 16189530.473 -15300618.623 10 0 60554 17100.00000 0 -11711478.855 14269788.499 -17583040.788 10 0 60554 18000.00000 0 -11121952.273 12049769.306 -19523389.130 10 0 60554 18900.00000 0 -10672005.120 9578611.644 -21084030.638 10 0 60554 19800.00000 0 -10397713.189 6914585.757 -22234746.155 10 0 60554 20700.00000 0 -10324371.473 4122889.431 -22953308.603 10 0 60554 21600.00000 0 -10465365.224 1273162.570 -23225903.837 10 0 60554 22500.00000 0 -10821560.783 -1563176.320 -23047387.064 10 0 60554 23400.00000 0 -11381240.878 -4315661.350 -22421370.870 10 0 60554 24300.00000 0 -12120586.248 -6917465.425 -21360144.168 10 0 60554 25200.00000 0 -13004682.570 -9307930.891 -19884424.389 10 0 60554 26100.00000 0 -13989009.794 -11434840.881 -18022948.284 10 0 60554 27000.00000 0 -15021351.028 -13256338.575 -15811909.576 10 0 60554 27900.00000 0 -16044040.638 -14742416.326 -13294254.416 10 0 60554 28800.00000 0 -16996457.242 -15875914.410 -10518848.214 10 0 60554 29700.00000 0 -17817657.076 -16652989.541 -7539529.744 10 0 60554 30600.00000 0 -18449037.382 -17083035.235 -4414070.511 10 0 60554 31500.00000 0 -18836918.189 -17188058.844 -1203059.252 10 0 60554 32400.00000 0 -18934934.225 -17001542.503 2031267.180 10 0 60554 33300.00000 0 -18706136.548 -16566836.759 5226224.259 10 0 60554 34200.00000 0 -18124715.422 -15935154.805 8319888.585 10 0 60554 35100.00000 0 -17177271.773 -15163252.048 11252291.988 10 0 60554 36000.00000 0 -15863583.428 -14310888.719 13966578.154 10 0 60554 36900.00000 0 -14196833.019 -13438182.008 16410099.766 10 0 60554 37800.00000 0 -12203286.892 -12602958.861 18535435.340 10 0 60554 38700.00000 0 -9921437.055 -11858220.464 20301306.507 10 0 60554 39600.00000 0 -7400640.365 -11249824.706 21673378.360 10 0 60554 40500.00000 0 -4699309.960 -10814483.942 22624927.643 10 0 60554 41400.00000 0 -1882732.452 -10578162.195 23137366.019 10 0 60554 42300.00000 0 979400.054 -10554939.521 23200608.147 10 0 60554 43200.00000 0 3815642.092 -10746391.777 22813277.115 10 0 60554 44100.00000 0 6555522.300 -11141512.776 21982742.622 10 0 60554 45000.00000 0 9132233.861 -11717183.113 20724990.287 10 0 60554 45900.00000 0 11485176.773 -12439167.103 19064323.569 10 0 60554 46800.00000 0 13562246.511 -13263597.003 17032902.916 10 0 60554 47700.00000 0 15321773.755 -14138882.918 14670129.970 10 0 60554 48600.00000 0 16734034.100 -15007968.519 12021887.829 10 0 60554 49500.00000 0 17782264.439 -15810837.619 9139651.415 10 0 60554 50400.00000 0 18463143.229 -16487165.511 6079484.973 10 0 60554 51300.00000 0 18786714.549 -16979002.336 2900946.294 10 0 60554 52200.00000 0 18775759.419 -17233373.948 -334080.481 10 0 60554 53100.00000 0 18464641.480 -17204688.910 -3562599.810 10 0 60554 54000.00000 0 17897676.721 -16856848.335 -6721742.611 10 0 60554 54900.00000 0 17127097.282 -16164967.912 -9750001.637 10 0 60554 55800.00000 0 16210696.819 -15116638.023 -12588438.925 10 0 60554 56700.00000 0 15209258.404 -13712667.742 -15181840.706 10 0 60554 57600.00000 0 14183874.978 -11967280.588 -17479796.429 10 0 60554 58500.00000 0 13193276.666 -9907753.370 -19437680.406 10 0 60554 59400.00000 0 12291278.506 -7573513.131 -21017516.922 10 0 60554 60300.00000 0 11524456.509 -5014729.998 -22188712.387 10 0 60554 61200.00000 0 10930149.830 -2290464.932 -22928640.939 10 0 60554 62100.00000 0 10534872.547 533550.312 -23223073.094 10 0 60554 63000.00000 0 10353200.931 3387408.591 -23066440.227 10 0 60554 63900.00000 0 10387181.825 6199694.628 -22461930.763 10 0 60554 64800.00000 0 10626285.756 8900213.825 -21421417.271 10 0 60554 65700.00000 0 11047905.521 11422670.170 -19965216.605 10 0 60554 66600.00000 0 11618378.284 13707183.108 -18121688.343 10 0 60554 67500.00000 0 12294487.385 15702540.195 -15926679.606 10 0 60554 68400.00000 0 13025380.225 17368093.394 -13422827.110 10 0 60554 69300.00000 0 13754821.284 18675221.679 -10658729.869 10 0 60554 70200.00000 0 14423685.442 19608300.579 -7688008.363 10 0 60554 71100.00000 0 14972586.813 20165139.813 -4568268.082 10 0 60554 72000.00000 0 15344532.666 20356872.075 -1359987.197 10 0 60554 72900.00000 0 15487490.887 20207298.808 1874650.428 10 0 60554 73800.00000 0 15356763.074 19751721.293 5072954.639 10 0 60554 74700.00000 0 14917063.294 19035306.668 8172937.883 10 0 60554 75600.00000 0 14144214.907 18111057.958 11114510.504 10 0 60554 76500.00000 0 13026393.579 17037473.368 13840639.694 10 0 60554 77400.00000 0 11564863.543 15875993.091 16298449.995 10 0 60554 78300.00000 0 9774175.121 14688340.552 18440244.479 10 0 60554 79200.00000 0 7681813.734 13533869.253 20224427.276 10 0 60554 80100.00000 0 5327313.491 12467026.228 21616309.954 10 0 60554 81000.00000 0 2760870.447 11535038.154 22588786.434 10 0 60554 81900.00000 0 41511.374 10775916.949 23122863.525 10 0 60554 82800.00000 0 -2765107.629 10216868.467 23208036.714 10 0 60554 83700.00000 0 -5589182.969 9873171.239 22842503.600 10 0 60554 84600.00000 0 -8359424.258 9747572.696 22033210.251 10 0 60554 85500.00000 0 -11005784.514 9830228.879 20795728.706 10 0 60555 0.00000 0 -13462147.039 10099190.884 19153967.142 10 0 60555 900.00000 0 -15668858.935 10521418.545 17139716.185 10 0 60555 1800.00000 0 -17575002.580 11054279.019 14792041.383 10 0 60555 2700.00000 0 -19140314.506 11647468.055 12156529.689 10 0 60555 3600.00000 0 -20336667.827 12245272.800 9284405.986 10 0 60555 4500.00000 0 -21149057.077 12789080.393 6231535.718 10 0 60555 5400.00000 0 -21576043.667 13220025.701 3057333.208 10 0 60555 6300.00000 0 -21629643.164 13481665.111 -176402.579 10 0 60555 7200.00000 0 -21334659.416 13522561.899 -3406701.255 10 0 60555 8100.00000 0 -20727494.172 13298672.189 -6570658.392 10 0 60555 9000.00000 0 -19854483.399 12775428.988 -9606671.675 10 0 60555 9900.00000 0 -18769831.726 11929434.638 -12455650.371 10 0 60555 10800.00000 0 -17533233.555 10749688.936 -15062173.412 10 0 60555 11700.00000 0 -16207282.607 9238300.088 -17375572.688 10 0 60555 12600.00000 0 -14854780.364 7410647.861 -19350919.922 10 0 60555 13500.00000 0 -13536057.701 5294991.667 -20949897.889 10 0 60555 14400.00000 0 -12306422.964 2931539.800 -22141539.372 10 0 60555 15300.00000 0 -11213843.812 371018.771 -22902820.150 10 0 60555 16200.00000 0 -10296959.758 -2327197.545 -23219095.470 10 0 60555 17100.00000 0 -9583507.912 -5097321.019 -23084372.576 10 0 60555 18000.00000 0 -9089226.744 -7869651.858 -22501415.115 10 0 60555 18900.00000 0 -8817282.374 -10573247.042 -21481678.355 10 0 60555 19800.00000 0 -8758239.891 -13138644.405 -20045077.322 10 0 60555 20700.00000 0 -8890579.456 -15500530.039 -18219592.887 10 0 60555 21600.00000 0 -9181734.175 -17600239.314 -16040723.808 10 0 60555 22500.00000 0 -9589605.137 -19387988.826 -13550795.409 10 0 60555 23400.00000 0 -10064489.161 -20824747.690 -10798138.222 10 0 60555 24300.00000 0 -10551337.709 -21883671.680 -7836152.286 10 0 60555 25200.00000 0 -10992251.676 -22551041.759 -4722274.884 10 0 60555 26100.00000 0 -11329106.947 -22826668.931 -1516871.416 10 0 60555 27000.00000 0 -11506200.235 -22723749.761 1717929.444 10 0 60555 27900.00000 0 -11472803.768 -22268179.255 4919434.130 10 0 60555 28800.00000 0 -11185521.172 -21497350.540 8025593.166 10 0 60555 29700.00000 0 -10610345.228 -20458492.109 10976197.668 10 0 60555 30600.00000 0 -9724330.509 -19206612.441 13714040.581 10 0 60555 31500.00000 0 -8516809.946 -17802138.085 16186020.497 10 0 60555 32400.00000 0 -6990103.191 -16308343.891 18344167.132 10 0 60555 33300.00000 0 -5159685.791 -14788682.649 20146569.040 10 0 60555 34200.00000 0 -3053810.455 -13304125.504 21558185.966 10 0 60555 35100.00000 0 -712594.375 -11910624.025 22551530.441 10 0 60555 36000.00000 0 1813391.364 -10656799.667 23107205.558 10 0 60555 36900.00000 0 4464973.540 -9581957.093 23214288.452 10 0 60555 37800.00000 0 7176594.650 -8714504.328 22870551.745 10 0 60555 38700.00000 0 9878806.416 -8070845.983 22082518.082 10 0 60555 39600.00000 0 12500936.671 -7654796.183 20865345.827 10 0 60555 40500.00000 0 14973819.811 -7457536.216 19242547.136 10 0 60555 41400.00000 0 17232477.806 -7458119.151 17245542.695 10 0 60555 42300.00000 0 19218640.249 -7624500.672 14913060.631 10 0 60555 43200.00000 0 20882998.168 -7915053.033 12290390.314 10 0 60555 44100.00000 0 22187096.955 -8280498.376 9428504.749 10 0 60555 45000.00000 0 23104788.598 -8666179.536 6383068.335 10 0 60555 45900.00000 0 23623181.758 -9014571.721 3213349.303 10 0 60555 46800.00000 0 23743049.374 -9267927.811 -18941.513 10 0 60555 47700.00000 0 23478676.510 -9370943.974 -3250862.053 10 0 60555 48600.00000 0 22857155.098 -9273331.182 -6419475.827 10 0 60555 49500.00000 0 21917155.880 -8932182.116 -9463088.727 10 0 60555 50400.00000 0 20707230.255 -8314031.683 -12322460.396 10 0 60555 51300.00000 0 19283714.807 -7396522.595 -14941965.416 10 0 60555 52200.00000 0 17708328.076 -6169604.446 -17270680.810 10 0 60555 53100.00000 0 16045562.031 -4636214.851 -19263378.131 10 0 60555 54000.00000 0 14359978.963 -2812413.358 -20881400.753 10 0 60555 54900.00000 0 12713528.075 -726962.137 -22093409.639 10 0 60555 55800.00000 0 11162994.621 1579629.137 -22875983.686 10 0 60555 56700.00000 0 9757688.274 4056554.325 -23214063.986 10 0 60555 57600.00000 0 8537466.774 6644597.339 -23101234.407 10 0 60555 58500.00000 0 7531176.404 9278375.580 -22539834.159 10 0 60555 59400.00000 0 6755573.042 11888847.266 -21540901.160 10 0 60555 60300.00000 0 6214767.177 14405978.832 -20123948.130 10 0 60555 61200.00000 0 5900214.375 16761462.174 -18316576.345 10 0 60555 62100.00000 0 5791249.872 18891369.639 -16153934.882 10 0 60555 63000.00000 0 5856143.355 20738637.351 -13678035.936 10 0 60555 63900.00000 0 6053628.434 22255274.628 -10936939.414 10 0 60555 64800.00000 0 6334841.587 23404208.572 -7983822.365 10 0 60555 65700.00000 0 6645588.418 24160688.016 -4875950.969 10 0 60555 66600.00000 0 6928841.444 24513189.366 -1673574.678 10 0 60555 67500.00000 0 7127364.051 24463787.296 1561236.406 10 0 60555 68400.00000 0 7186349.992 24027975.469 4765788.789 10 0 60555 69300.00000 0 7055967.155 23233945.435 7877974.533 10 0 60555 70200.00000 0 6693698.278 22121354.041 10837468.862 10 0 60555 71100.00000 0 6066379.788 20739631.132 13586893.618 10 0 60555 72000.00000 0 5151852.462 19145898.297 16072924.326 10 0 60555 72900.00000 0 3940153.739 17402585.317 18247319.929 10 0 60555 73800.00000 0 2434200.417 15574843.567 20067855.655 10 0 60555 74700.00000 0 649931.732 13727863.973 21499141.334 10 0 60555 75600.00000 0 -1384094.961 11924210.986 22513309.625 10 0 60555 76500.00000 0 -3627640.993 10221283.325 23090561.013 10 0 60555 77400.00000 0 -6030218.720 8669006.998 23219554.941 10 0 60555 78300.00000 0 -8532961.795 7307856.601 22897639.227 10 0 60555 79200.00000 0 -11070857.351 6167287.420 22130912.732 10 0 60555 80100.00000 0 -13575248.916 5264643.787 20934119.237 10 0 60555 81000.00000 0 -15976507.096 4604589.520 19330373.566 10 0 60555 81900.00000 0 -18206757.656 4179084.476 17350724.137 10 0 60555 82800.00000 0 -20202553.612 3967908.466 15033559.273 10 0 60555 83700.00000 0 -21907379.698 3939710.599 12423867.822 10 0 60555 84600.00000 0 -23273884.089 4053539.859 9572367.676 10 0 60555 85500.00000 0 -24265743.195 4260792.036 6534518.758 99